Home   Weather   Sarajevo   Past weeks

Flag for Bosnia-Herzegovina Past Weather in Sarajevo, Bosnia-Herzegovina — Yesterday and Last 2 Weeks

54 °F


Feels Like: 54 °F
Forecast: 44 / 70 °F
Wind: 1 mph from North

Location: Sarajevo / Butmir

Current Time: Oct 24, 2016 at 8:27:10 PM

Latest Report: Oct 24, 2016 at 8:00 PM

Visibility: 10 mi

Pressure: 30.27 "Hg (28.42 "Hg at 526m altitude)

Humidity: 88%

Dew Point: 50 °F

Location of SarajevoLocation

Past Weather in Sarajevo — Graph


Sarajevo Temperature Yesterday

Maximum temperature yesterday: 59 °F (at 4:00 PM)
Minimum temperature yesterday: 43 °F (at 6:30 AM)
Average temperature yesterday: 49 °F

High & Low Weather Summary for the Past Weeks

High73 °F (Oct 15, 12:00 PM)100% (Oct 10, 12:00 AM)30.36 "Hg (Oct 10, 12:00 AM)
Low32 °F (Oct 13, 5:30 AM)44% (Oct 15, 12:00 PM)29.80 "Hg (Oct 12, 1:00 AM)
Average51 °F88%30.09 "Hg
* Reported Oct 9 7:00 PM — Oct 24 7:00 PM, Sarajevo, Weather by CustomWeather, © 2016

Note: Actual official high and low records may vary slightly from our data, if they occured in-between our weather recording intervals... More about our weather records


Sarajevo Weather History for the Previous 24 Hours

Scroll right to see more
Time TempWeatherWind HumidityBarometerVisibility
7:00 PM
Mon, Oct 24
55 °FClear.2 mph88%30.27 "Hg10 mi
6:00 PM57 °FClear.1 mph82%30.24 "Hg10 mi
5:30 PM64 °FSunny.1 mph64%30.21 "Hg10 mi
5:00 PM66 °FSunny.1 mph60%30.21 "Hg10 mi
4:30 PM68 °FSunny.1 mph53%30.21 "Hg10 mi
4:00 PM68 °FSunny.1 mph53%30.24 "Hg10 mi
3:30 PM68 °FSunny.1 mph53%30.24 "Hg10 mi
3:00 PM68 °FPassing clouds.No wind56%30.24 "HgN/A
2:30 PM64 °FPassing clouds.1 mph60%30.27 "HgN/A
2:00 PM63 °FPassing clouds.1 mph64%30.27 "HgN/A
1:30 PM61 °FSunny.No wind68%30.27 "Hg10 mi
1:00 PM57 °FClear.1 mph72%30.27 "Hg4 mi
12:30 PM55 °FFog.No wind100%30.30 "Hg3 mi
12:00 PM50 °FFog.1 mph100%30.30 "Hg2 mi
11:00 AM46 °FFog.1 mph100%30.33 "Hg1 mi
10:30 AM45 °FFog.1 mph100%30.33 "Hg1 mi
10:00 AM45 °FFog.No wind100%30.33 "Hg0 mi
9:30 AM45 °FFog.No wind93%30.33 "Hg0 mi
9:00 AM43 °FFog.No wind100%30.30 "Hg0 mi
8:30 AM43 °FFog.No wind100%30.30 "Hg0 mi
8:00 AM43 °FFog.No wind100%30.27 "Hg0 mi
7:30 AM43 °FFog.No wind100%30.27 "Hg1 mi
7:00 AM43 °FFog.No wind100%30.27 "Hg1 mi
6:30 AM43 °FFog.1 mph100%30.27 "Hg1 mi
6:00 AM43 °FFog.No wind100%30.24 "Hg1 mi
5:30 AM43 °FFog.1 mph100%30.24 "Hg1 mi
5:00 AM41 °FFog.1 mph100%30.24 "Hg2 mi
4:00 AM39 °FFog.1 mph100%30.24 "Hg2 mi
3:00 AM41 °FFog.No wind100%30.24 "Hg2 mi
2:00 AM41 °FFog.1 mph100%30.24 "Hg2 mi
1:00 AM43 °FFog.No wind100%30.24 "Hg2 mi
12:00 AM43 °FFog.1 mph100%30.21 "Hg2 mi
11:00 PM
Sun, Oct 23
45 °FFog.1 mph100%30.21 "Hg3 mi
10:30 PM45 °FFog.No wind100%30.21 "Hg3 mi
10:00 PM46 °FFog.No wind93%30.18 "Hg3 mi
9:30 PM46 °FPassing clouds.1 mph100%30.18 "Hg4 mi
9:00 PM46 °FPassing clouds.1 mph93%30.18 "Hg4 mi
8:30 PM48 °FPassing clouds.2 mph94%30.15 "Hg4 mi
8:00 PM50 °FPassing clouds.2 mph88%30.15 "Hg5 mi
Weather by CustomWeather, © 2016

See weather overviewHow to use our weather pages